TimeCDT,TemperatureF,Dew PointF,Humidity,Sea Level PressureIn,VisibilityMPH,Wind Direction,Wind SpeedMPH,Gust SpeedMPH,PrecipitationIn,Events,Conditions,WindDirDegrees,DateUTC
12:15 AM,59.2,54.7,85,30.01,10.0,South,4.6,-,N/A,,Clear,190,2012-11-02 05:15:00
12:35 AM,57.6,53.4,86,30.01,10.0,Calm,Calm,-,N/A,,Clear,0,2012-11-02 05:35:00
12:55 AM,54.9,54.9,100,30.01,7.0,Calm,Calm,-,N/A,,Clear,0,2012-11-02 05:55:00
1:15 AM,54.7,54.7,100,30.01,10.0,Calm,Calm,-,N/A,,Clear,0,2012-11-02 06:15:00
1:35 AM,54.0,54.0,100,30.00,10.0,Calm,Calm,-,N/A,,Clear,0,2012-11-02 06:35:00
1:55 AM,54.0,54.0,100,30.00,10.0,South,4.6,-,N/A,,Clear,180,2012-11-02 06:55:00
2:15 AM,55.8,55.0,97,30.00,10.0,South,3.5,-,N/A,,Clear,180,2012-11-02 07:15:00
2:35 AM,55.4,54.9,98,30.00,10.0,Calm,Calm,-,N/A,,Clear,0,2012-11-02 07:35:00
2:55 AM,53.8,53.8,100,30.00,7.0,Calm,Calm,-,N/A,,Clear,0,2012-11-02 07:55:00
3:15 AM,53.2,53.2,100,30.00,10.0,Calm,Calm,-,N/A,,Clear,0,2012-11-02 08:15:00
3:35 AM,53.2,53.2,100,30.00,10.0,Calm,Calm,-,N/A,,Clear,0,2012-11-02 08:35:00
3:55 AM,54.5,54.5,100,30.00,10.0,Calm,Calm,-,N/A,,Clear,0,2012-11-02 08:55:00
4:15 AM,53.8,53.8,100,30.00,10.0,SW,3.5,-,N/A,,Clear,220,2012-11-02 09:15:00
4:35 AM,57.2,55.4,94,30.00,10.0,SW,3.5,-,N/A,,Clear,220,2012-11-02 09:35:00
4:55 AM,54.7,54.0,97,30.00,10.0,Calm,Calm,-,N/A,,Clear,0,2012-11-02 09:55:00
5:15 AM,52.7,52.7,100,30.01,10.0,SW,3.5,-,N/A,,Clear,220,2012-11-02 10:15:00
5:35 AM,54.9,54.9,100,30.01,10.0,SW,3.5,-,N/A,,Clear,220,2012-11-02 10:35:00
5:55 AM,56.3,56.3,100,30.01,10.0,SW,3.5,-,N/A,,Clear,220,2012-11-02 10:55:00
6:15 AM,57.2,57.2,100,30.01,10.0,SW,4.6,-,N/A,,Clear,220,2012-11-02 11:15:00
6:35 AM,57.7,57.7,100,30.01,10.0,SSW,3.5,-,N/A,,Clear,210,2012-11-02 11:35:00
6:55 AM,58.5,58.5,100,30.02,10.0,SW,3.5,-,N/A,,Clear,230,2012-11-02 11:55:00
7:15 AM,58.1,58.1,100,30.02,10.0,SW,3.5,-,N/A,,Clear,230,2012-11-02 12:15:00
7:35 AM,59.0,59.0,100,30.03,7.0,SW,4.6,-,N/A,,Clear,230,2012-11-02 12:35:00
7:55 AM,59.0,59.0,100,30.03,7.0,WSW,3.5,-,N/A,,Clear,240,2012-11-02 12:55:00
8:15 AM,60.1,60.1,100,30.04,7.0,SW,4.6,-,N/A,,Clear,220,2012-11-02 13:15:00
8:35 AM,61.0,61.0,100,30.05,10.0,SW,5.8,-,N/A,,Clear,230,2012-11-02 13:35:00
8:55 AM,62.6,62.2,99,30.05,10.0,SW,5.8,-,N/A,,Clear,230,2012-11-02 13:55:00
9:15 AM,64.0,61.5,91,30.06,10.0,SW,5.8,-,N/A,,Clear,230,2012-11-02 14:15:00
9:35 AM,66.0,61.0,84,30.07,10.0,WSW,8.1,-,N/A,,Clear,240,2012-11-02 14:35:00
9:55 AM,68.0,61.5,80,30.08,10.0,WSW,5.8,-,N/A,,Clear,240,2012-11-02 14:55:00
10:15 AM,70.0,61.0,73,30.08,10.0,West,8.1,-,N/A,,Clear,260,2012-11-02 15:15:00
10:35 AM,72.0,61.3,69,30.08,10.0,West,8.1,-,N/A,,Clear,260,2012-11-02 15:35:00
10:55 AM,73.9,60.8,63,30.08,10.0,WSW,8.1,-,N/A,,Clear,250,2012-11-02 15:55:00
11:15 AM,74.8,60.4,61,30.08,10.0,West,5.8,16.1,N/A,,Clear,270,2012-11-02 16:15:00
11:35 AM,75.9,60.4,59,30.08,10.0,West,9.2,16.1,N/A,,Clear,260,2012-11-02 16:35:00
11:55 AM,76.8,60.8,58,30.08,10.0,West,6.9,-,N/A,,Clear,260,2012-11-02 16:55:00
12:15 PM,78.3,60.3,54,30.07,10.0,West,6.9,-,N/A,,Clear,260,2012-11-02 17:15:00
12:35 PM,79.0,59.7,52,30.06,10.0,West,10.4,-,N/A,,Clear,260,2012-11-02 17:35:00
12:55 PM,79.9,59.2,49,30.05,10.0,West,9.2,16.1,N/A,,Clear,260,2012-11-02 17:55:00
1:15 PM,80.6,59.4,48,30.04,10.0,West,9.2,-,N/A,,Clear,270,2012-11-02 18:15:00
1:35 PM,80.8,59.4,48,30.04,10.0,SW,5.8,-,N/A,,Clear,230,2012-11-02 18:35:00
1:55 PM,81.5,59.4,47,30.03,10.0,WSW,9.2,-,N/A,,Clear,240,2012-11-02 18:55:00
2:15 PM,82.2,59.0,45,30.02,10.0,WSW,6.9,-,N/A,,Clear,250,2012-11-02 19:15:00
2:35 PM,82.0,57.7,43,30.01,10.0,West,4.6,-,N/A,,Clear,270,2012-11-02 19:35:00
2:55 PM,82.6,58.6,44,30.01,10.0,WNW,4.6,-,N/A,,Clear,290,2012-11-02 19:55:00
3:15 PM,82.8,58.1,43,30.01,10.0,SSW,8.1,-,N/A,,Clear,210,2012-11-02 20:15:00
3:35 PM,83.1,56.7,40,30.01,10.0,SW,6.9,-,N/A,,Clear,220,2012-11-02 20:35:00
3:55 PM,82.8,55.0,38,30.01,10.0,WSW,5.8,-,N/A,,Clear,250,2012-11-02 20:55:00
4:15 PM,83.1,55.9,39,30.01,10.0,SSW,8.1,-,N/A,,Clear,210,2012-11-02 21:15:00
4:55 PM,81.7,57.7,44,30.01,10.0,West,3.5,-,N/A,,Clear,260,2012-11-02 21:55:00
5:15 PM,80.6,59.4,48,30.00,10.0,SW,3.5,-,N/A,,Clear,220,2012-11-02 22:15:00
5:35 PM,78.1,61.5,57,30.00,10.0,SW,3.5,-,N/A,,Clear,230,2012-11-02 22:35:00
5:55 PM,73.6,64.6,73,30.00,10.0,Calm,Calm,-,N/A,,Clear,0,2012-11-02 22:55:00
6:15 PM,72.0,63.5,75,30.01,10.0,SSW,3.5,-,N/A,,Clear,200,2012-11-02 23:15:00
6:55 PM,68.9,62.8,81,30.01,10.0,SSW,3.5,-,N/A,,Clear,200,2012-11-02 23:55:00
7:15 PM,67.6,62.8,84,30.02,10.0,SSW,3.5,-,N/A,,Clear,200,2012-11-03 00:15:00
7:35 PM,66.4,63.3,90,30.03,10.0,SSW,3.5,-,N/A,,Clear,200,2012-11-03 00:35:00
7:55 PM,65.1,64.2,97,30.03,10.0,SW,3.5,-,N/A,,Clear,220,2012-11-03 00:55:00
8:15 PM,64.2,64.0,99,30.04,10.0,SSW,3.5,-,N/A,,Clear,210,2012-11-03 01:15:00
8:35 PM,63.7,63.7,100,30.04,10.0,Calm,Calm,-,N/A,,Clear,0,2012-11-03 01:35:00
8:55 PM,62.6,62.6,100,30.04,10.0,Calm,Calm,-,N/A,,Clear,0,2012-11-03 01:55:00
9:15 PM,61.9,61.9,100,30.04,10.0,Calm,Calm,-,N/A,,Clear,0,2012-11-03 02:15:00
9:35 PM,61.2,61.2,100,30.05,10.0,SW,4.6,-,N/A,,Clear,220,2012-11-03 02:35:00
9:55 PM,60.8,60.8,100,30.05,10.0,SW,4.6,-,N/A,,Clear,220,2012-11-03 02:55:00
10:35 PM,63.0,62.2,97,30.05,10.0,SSW,4.6,-,N/A,,Clear,210,2012-11-03 03:35:00
10:55 PM,63.0,61.5,95,30.05,10.0,SW,4.6,-,N/A,,Clear,220,2012-11-03 03:55:00
11:15 PM,62.2,60.6,94,30.05,10.0,SW,3.5,-,N/A,,Clear,220,2012-11-03 04:15:00
11:35 PM,62.1,61.2,97,30.05,10.0,Calm,Calm,-,N/A,,Clear,0,2012-11-03 04:35:00
11:55 PM,61.0,60.8,99,30.05,10.0,SSW,4.6,-,N/A,,Clear,200,2012-11-03 04:55:00